Probability
0 0 0 0 0 0 0 0 0 0 0 0 0 0 0 0 1 2 1 0 0 0 0 0 0 0 0 0 0 1 0 0 0 0 0 0 0 0 0 0 0 0 0
0 0 0 0 0 0 0 0 0 0 0 0 0 0 0 0 1 1 1 0 0 0 0 0 0 0 0 0 1 1 1 0 0 0 0 0 0 0 0 0 0 0 0
0 0 0 0 0 0 0 0 0 0 0 0 0 0 0 0 0 0 0 0 0 0 0 0 0 0 0 0 1 1 1 0 0 0 0 0 0 0 0 0 0 0 0
0 0 0 0 0 0 0 0 0 0 0 0 0 0 0 0 0 0 0 0 0 0 0 0 0 0 0 0 0 1 2 1 0 0 0 0 0 0 0 0 0 0 0
0 0 0 0 0 0 0 0 0 0 0 0 0 0 0 0 0 0 0 0 0 0 0 0 0 0 0 0 0 1 2 2 1 0 0 0 0 0 0 0 0 0 0
0 0 0 0 0 0 0 0 0 0 0 0 0 0 0 0 0 0 0 0 0 0 0 0 0 0 0 0 0 0 1 2 1 0 0 0 0 0 0 0 0 0 0
0 0 0 0 0 0 0 0 0 0 0 0 0 0 0 0 0 0 0 0 0 0 0 0 0 0 0 0 0 0 0 1 1 0 0 0 0 0 0 0 0 0 0
0 0 0 0 0 0 0 0 0 0 0 0 0 0 0 0 0 0 0 0 0 0 0 0 0 0 0 0 0 0 0 0 0 0 0 0 0 0 0 0 0 0 0
0 0 0 0 0 0 0 0 0 0 0 0 0 0 0 0 0 0 0 0 0 0 0 0 0 0 0 0 0 0 0 0 0 0 0 0 0 0 0 0 0 0 0
0 0 0 0 0 0 0 0 0 0 0 0 0 0 0 0 0 0 0 0 0 0 0 0 0 0 0 0 0 0 0 0 0 0 0 0 0 0 0 0 0 0 0
0 0 0 0 0 0 0 0 0 0 0 0 0 0 0 0 0 0 0 0 0 0 0 0 0 0 0 0 0 0 0 0 0 0 0 0 0 0 0 0 0 0 0
1 1 1 1 0 0 0 0 0 0 0 0 0 0 0 0 0 0 0 0 0 0 0 0 0 0 0 0 0 0 0 0 0 0 0 0 0 0 0 0 0 0 0
3 5 5 3 1 0 0 0 0 0 0 0 0 0 0 0 0 0 0 0 0 0 0 0 0 0 0 0 0 0 0 0 0 0 0 0 0 0 0 0 0 0 0
6 11 11 7 3 0 0 0 0 0 0 0 0 0 0 0 0 0 0 0 0 0 0 0 0 0 0 0 0 0 0 0 0 0 0 0 0 0 0 0 0 0 0
10 16 16 11 6 2 0 0 0 0 0 0 0 0 0 0 0 0 0 0 0 0 0 0 0 0 0 0 0 0 0 0 0 0 0 0 0 0 0 0 0 0 0
17 22 21 15 11 7 4 3 2 1 2 2 1 1 1 1 0 0 0 0 0 0 0 0 0 0 1 0 0 0 0 0 0 0 0 0 0 0 0 0 0 0 0
29 33 31 23 17 12 13 13 8 5 7 7 6 5 4 4 3 2 1 1 1 1 0 0 0 1 3 3 2 1 0 0 0 0 0 0 0 0 0 0 0 0 0
41 46 45 36 26 20 22 25 20 15 15 16 15 14 14 13 12 10 6 4 2 2 1 0 0 1 3 5 5 3 1 0 0 0 0 0 0 0 0 0 0 0 0
55 56 56 50 40 32 31 34 34 29 26 26 27 28 27 27 28 25 20 15 10 5 3 1 0 0 2 5 7 5 1 0 0 0 0 0 0 0 0 0 0 0 0
69 66 64 64 59 47 40 42 45 44 40 39 40 41 41 41 42 39 34 30 25 16 9 4 1 0 1 5 7 5 1 1 0 0 0 0 0 0 0 0 0 0 0
75 73 71 73 70 54 38 37 46 52 55 55 54 55 52 46 41 35 30 30 31 26 18 10 3 1 3 7 9 6 2 1 0 0 0 0 0 0 0 0 0 0 0
77 76 74 75 69 49 26 20 31 48 61 67 67 65 58 43 31 22 16 14 18 20 19 14 7 3 6 13 17 12 6 2 1 1 1 0 0 0 0 0 0 0 0
71 71 71 72 66 46 20 6 11 30 52 66 71 69 60 43 29 25 17 10 9 9 9 9 6 4 7 15 22 18 9 4 4 4 3 1 0 0 0 0 0 0 0
58 58 60 63 60 44 19 4 3 14 33 51 59 60 58 48 35 27 23 19 18 13 5 2 2 2 3 9 16 14 7 4 6 5 2 0 0 0 0 0 0 0 0
43 43 45 47 47 35 17 4 1 8 20 31 38 39 41 37 25 15 14 20 25 23 12 3 1 0 0 2 5 5 3 2 3 2 1 0 0 0 0 0 0 0 0
34 34 35 36 36 29 16 4 2 7 14 20 23 23 20 17 11 4 5 15 24 26 18 7 2 0 0 0 0 1 1 0 0 0 0 0 0 0 0 0 0 0 0
Wind_Speed
3 2 2 1 1 0 2 1 1 1 1 2 3 2 2 3 2 4 5 10 11 11 11 11 11 10 9 9 9 9 10 9 9 9 8 8 8 8 7 7 7 7 6
3 2 1 1 1 1 2 0 1 1 1 1 2 1 2 2 1 3 5 6 9 10 11 11 11 11 10 10 10 9 10 10 9 9 9 8 8 8 8 7 7 7 7
2 2 1 1 2 0 1 1 1 1 2 3 3 2 2 1 0 0 3 4 6 9 10 10 10 10 11 11 11 10 9 9 9 9 10 9 9 9 8 8 7 7 7
2 2 2 3 2 1 1 1 1 0 0 1 1 1 1 2 2 2 2 4 5 5 8 10 10 10 11 11 12 11 10 9 9 10 10 10 10 10 9 9 8 8 8
2 2 3 2 3 1 2 3 3 3 2 1 1 2 2 2 2 3 2 3 3 4 5 9 11 11 12 13 12 12 11 10 10 10 11 11 11 11 11 10 10 9 9
3 3 3 2 3 3 3 3 2 1 1 2 3 1 1 2 2 1 1 2 3 4 5 6 7 8 12 12 12 12 12 11 11 11 11 12 12 12 12 12 11 11 11
3 2 3 1 2 4 4 4 3 1 1 1 2 2 2 3 2 2 1 0 1 2 3 5 5 4 5 12 12 12 12 13 12 12 12 12 13 12 12 12 12 12 12
2 2 2 1 3 2 3 2 2 3 1 2 1 2 1 2 1 2 2 2 1 1 1 4 4 4 4 4 8 12 12 12 13 13 13 12 12 12 13 14 14 13 13
2 3 2 2 2 1 3 1 3 2 3 1 2 2 2 2 1 2 1 3 2 1 1 1 3 4 3 3 3 8 10 10 11 12 12 12 13 13 13 14 14 14 14
3 3 2 2 2 2 2 0 3 3 1 2 1 1 1 1 1 1 1 2 2 1 0 1 0 2 2 3 4 5 7 7 8 10 11 12 12 13 13 14 15 15 15
4 3 4 3 1 1 3 3 2 3 2 3 2 1 1 1 2 1 1 1 2 2 3 1 0 1 1 3 4 4 5 4 4 6 7 9 11 12 13 14 15 16 16
5 5 4 3 2 2 3 2 1 1 2 3 3 3 1 1 1 1 1 1 2 2 3 2 0 1 1 2 6 7 6 4 3 3 4 6 7 9 11 12 13 15 16
5 7 6 5 3 2 2 2 2 0 1 1 2 3 3 3 2 2 3 3 2 0 3 3 3 2 2 4 5 6 6 6 4 3 4 5 6 7 8 10 11 13 13
4 8 6 6 5 4 4 4 3 3 2 2 3 1 2 3 2 2 2 2 3 3 2 3 3 3 2 3 6 4 4 7 6 5 5 5 6 7 7 8 9 9 10
4 9 7 7 6 5 4 4 3 4 4 4 4 4 3 3 2 2 1 1 2 3 3 1 1 2 3 3 7 3 3 7 8 8 8 8 8 8 8 8 8 9 9
4 7 7 7 7 6 6 5 4 4 4 4 3 3 3 3 2 2 2 2 2 2 3 2 2 1 2 2 5 3 3 6 10 12 12 12 11 10 9 9 9 10 10
5 6 7 7 7 7 7 6 6 6 6 6 6 5 5 5 3 3 2 3 3 3 4 4 3 2 2 3 3 3 4 4 6 13 15 15 13 12 12 11 11 11 11
7 7 7 7 8 8 8 8 9 8 7 7 7 7 6 6 7 5 4 4 4 3 4 5 4 3 4 4 5 5 6 7 6 10 13 14 15 15 14 13 13 12 12
7 7 8 8 8 8 8 9 9 9 8 8 8 8 7 7 7 6 6 6 5 5 4 5 5 5 4 5 5 6 7 5 8 9 11 15 16 16 15 15 15 14 14
8 8 8 8 8 8 8 8 9 9 9 8 8 8 8 8 8 8 7 7 6 6 5 5 5 5 5 6 4 5 5 5 6 8 7 7 12 17 18 17 17 16 16
7 6 6 6 6 7 7 7 7 9 8 8 8 8 9 10 11 9 9 7 8 7 6 6 6 6 6 5 5 5 6 5 5 5 5 5 6 7 9 14 17 17 17
4 4 5 5 6 7 7 8 7 6 6 8 8 8 9 10 13 15 15 14 11 9 8 7 7 7 7 6 5 5 4 4 5 4 4 5 5 5 5 6 13 18 19
2 3 3 4 4 4 4 4 6 5 5 6 6 6 8 11 10 9 12 16 16 17 15 10 11 10 9 6 5 6 6 6 6 4 3 5 4 5 5 7 12 14 17
3 3 3 3 3 2 1 2 4 5 6 6 6 7 7 8 10 8 9 10 11 12 14 14 13 14 12 9 8 7 7 7 7 6 6 8 6 6 7 6 10 13 15
4 4 3 4 3 2 1 1 2 3 4 6 6 7 8 8 9 10 9 10 10 10 13 17 17 17 19 18 13 7 7 8 9 7 7 9 8 7 7 7 8 14 16
4 4 4 3 3 2 0 1 2 2 4 4 5 6 8 7 7 7 7 8 11 10 10 12 11 13 15 15 17 13 11 11 10 8 7 8 8 6 7 6 6 6 9
Wind_Direction
48 45 62 25 327 65 101 136 173 169 199 225 265 267 298 326 76 118 138 161 159 161 165 172 178 180 181 180 177 175 175 174 171 170 171 171 170 170 169 167 164 160 157
50 9 68 43 9 66 91 182 154 189 207 195 257 273 284 311 353 106 143 164 172 171 170 175 181 186 187 188 186 183 182 182 180 179 180 181 180 180 181 178 175 174 172
45 347 32 73 26 360 160 175 162 197 203 199 208 201 217 186 89 65 152 163 173 186 183 185 187 189 191 193 194 192 187 184 185 186 187 188 188 188 189 188 187 184 180
29 336 34 50 335 323 42 98 111 315 299 185 178 209 166 158 171 209 215 186 168 179 187 194 197 195 196 198 199 198 195 190 190 192 193 196 197 196 195 196 196 193 190
30 32 68 24 304 4 39 36 54 39 348 350 268 191 198 182 174 221 206 203 166 162 176 192 201 201 202 205 205 204 201 198 198 200 200 202 204 203 202 202 202 201 199
42 1 106 31 346 41 41 52 28 75 302 310 303 178 203 176 193 187 219 219 176 180 181 177 187 207 211 211 210 210 208 206 206 207 207 208 208 208 207 207 207 206 205
85 16 59 99 42 65 39 24 9 299 227 21 313 248 198 190 175 154 195 15 138 163 153 164 181 189 200 213 214 214 214 214 213 213 213 213 212 210 210 211 212 211 210
150 119 39 47 69 101 67 26 31 336 341 89 329 309 200 150 259 155 152 175 115 71 168 177 175 175 199 186 207 213 216 219 221 219 217 217 217 215 213 214 215 215 214
124 64 61 40 360 88 104 39 3 5 356 349 44 3 356 37 160 119 98 98 94 33 301 147 178 170 193 169 178 204 212 218 223 224 224 221 220 220 220 219 218 218 218
168 153 135 93 6 50 99 330 81 342 331 314 134 115 102 63 351 107 202 136 159 166 23 348 98 159 161 133 138 158 190 207 221 229 230 228 225 224 225 224 223 223 222
187 175 151 141 164 71 88 68 72 3 343 358 354 33 71 215 259 240 154 160 212 187 160 167 323 93 118 132 127 127 157 184 209 229 235 237 233 229 229 230 231 230 228
184 181 168 160 195 168 134 123 92 109 38 21 353 346 343 329 321 333 6 227 220 184 149 149 158 194 177 121 120 130 148 161 184 224 242 246 244 240 238 237 238 238 236
181 175 173 163 193 171 164 164 184 355 172 62 329 325 352 348 12 3 352 332 339 267 183 187 191 196 199 127 128 142 164 170 182 208 236 251 252 249 246 245 244 245 243
177 156 161 164 193 191 194 180 213 197 192 209 259 314 319 304 347 346 334 346 330 312 262 203 172 174 164 129 146 169 170 186 193 209 228 244 251 251 250 249 248 248 248
164 153 166 172 188 199 209 184 220 232 174 197 228 212 228 268 240 255 288 298 298 308 313 312 197 165 154 146 159 195 187 200 207 217 228 235 240 244 246 247 248 249 248
186 157 171 180 189 193 197 209 224 221 211 216 241 259 232 268 286 252 237 256 261 267 282 311 302 236 177 207 172 211 237 216 220 227 232 232 231 234 237 241 244 246 245
193 178 184 190 195 198 195 200 224 227 210 216 226 228 223 239 270 290 267 238 234 236 254 272 276 284 204 213 209 227 253 239 233 234 233 228 225 228 231 235 239 242 243
204 196 194 200 205 205 200 201 213 229 221 217 223 230 228 224 219 236 257 266 257 243 240 261 271 277 261 228 217 219 243 257 254 251 234 224 222 224 228 231 235 237 239
210 209 202 206 211 212 205 206 210 221 227 222 220 223 225 228 228 224 225 237 245 249 229 235 245 240 243 241 232 229 239 245 258 264 237 223 223 225 228 231 233 235 236
211 217 215 214 213 217 217 214 215 218 224 227 225 224 224 223 226 226 232 232 238 250 255 253 251 245 239 232 219 222 239 234 242 255 255 230 222 225 229 230 232 232 232
221 219 220 219 218 217 221 219 221 224 224 230 232 232 235 233 232 231 236 231 229 232 238 243 246 245 240 231 223 218 233 236 236 235 242 242 224 219 224 231 234 235 233
234 227 225 227 228 232 227 218 219 236 232 232 236 237 242 241 239 235 237 238 236 236 239 241 246 245 243 237 232 232 235 241 251 240 238 245 239 235 226 219 223 225 227
257 250 251 246 243 242 251 232 226 239 253 254 252 251 256 257 252 242 238 238 242 242 239 243 252 254 255 252 248 246 240 240 244 243 259 263 254 253 247 256 253 232 223
345 320 287 271 270 275 240 216 236 246 261 267 269 267 264 267 272 273 268 256 245 244 240 239 244 250 253 253 252 252 251 256 252 242 235 252 251 250 255 250 248 237 224
353 330 336 330 321 317 347 183 223 276 273 278 279 281 279 273 274 278 276 271 266 257 251 245 236 238 241 244 244 250 248 248 253 243 222 234 239 239 239 238 239 235 226
345 340 340 335 330 327 13 168 196 283 292 295 293 288 287 302 321 321 297 286 277 272 273 272 257 249 246 245 237 234 239 245 249 249 231 231 236 233 243 234 230 231 226